Tracking 29892 objects as of 21-Nov-2024
HD Live streaming from Space Station
objects crossing your sky now

FENGYUN 1C DEB

Track FENGYUN 1C DEB now!
10-day predictions


NORAD ID: 30013
Int'l Code: 1999-025MN
Perigee: 850.8 km
Apogee: 1,038.8 km
Inclination: 99.6 °
Period: 103.8 minutes
Semi major axis: 7315 km
RCS: 0.0821 m2 (small)
Launch date: May 10, 1999
Source: People's Republic of China (PRC)
Launch site: Taiyaun Space Center, China (TSC)

Note: This is SATELLITE DEBRIS
Your satellite tracking list
Your tracking list is empty




NASA's NSSDC Master Catalog

Two Line Element Set (TLE):
1 30013U 99025MN  24324.94077840  .00000651  00000-0  55487-3 0  9990
2 30013  99.5937 328.0199 0128475 354.5286  33.8106 13.87426862903160
Source of the keplerian elements: AFSPC